Location: Seattle
(47.6064°N, 122.3308°W)
Time: 02:05:27
(UTC-08:00)

A-11 Canister half - Pass Details

Date: 01 December 2020
Orbit: 1524 x 1684 km, 47.3° (Epoch: 21 January)

Event Time Altitude Azimuth Distance (km) Brightness Sun altitude
Rises 10:07:48 0° 286° (WNW) 4,918 11.3 16.1°
Reaches altitude 10° 10:11:00 10° 284° (WNW) 3,914 10.8 16.4°
Maximum altitude 10:20:55 70° 204° (SSW) 1,712 9.8 17.1°
Drops below altitude 10° 10:30:28 10° 123° (ESE) 3,783 12.1 17.7°
Sets 10:33:31 0° 121° (ESE) 4,745 12.4 17.9°
